Location: Batang Balui
(2.7000°N, 113.7833°E)
Time: 21:23:14
(UTC+00:00)

Okean O Rocket - Pass Details

Date: 03 December 2021
Orbit: 621 x 645 km, 98.2° (Epoch: 19 January)

Event Time Altitude Azimuth Distance (km) Brightness Sun altitude
Rises 10:41:25 0° 151° (SSE) 2,927 5.0 -7.2°
Reaches altitude 10° 10:43:47 10° 142° (SE) 2,021 4.0 -7.7°
Maximum altitude 10:47:45 33° 78° (ENE) 1,074 2.3 -8.7°
Drops below altitude 10° 10:51:42 10° 14° (NNE) 2,026 3.9 -9.6°
Sets 10:54:04 0° 4° (N) 2,935 4.8 -10.1°
